Home   Weather   Chula Vista   Past weeks

Flag for USA Past Weather in Chula Vista, California, USA — Yesterday and Last 2 Weeks

Now
55 °F

Clear.


Feels Like: 55 °F
Forecast: 55 / 74 °F
Wind: No wind

Location: Brown Field Municipal Airport

Current Time: Apr 26, 2017 at 3:25:35 am

Latest Report: Apr 26, 2017 at 2:53 am


Visibility: 9 mi

Pressure: 29.88 "Hg

Humidity: 93%

Dew Point: 53 °F

Location of Chula VistaLocation

Past Weather in Chula Vista — Graph

°F

Chula Vista Temperature Yesterday

Maximum temperature yesterday: 69 °F (at 11:53 am)
Minimum temperature yesterday: 56 °F (at 9:53 pm)
Average temperature yesterday: 62 °F

High & Low Weather Summary for the Past Weeks

 TemperatureHumidityPressure
High83 °F (Apr 22, 10:53 am)100% (Apr 12, 4:16 am)30.13 "Hg (Apr 12, 4:16 am)
Low47 °F (Apr 11, 5:53 am)27% (Apr 22, 3:53 pm)29.83 "Hg (Apr 23, 5:53 am)
Average62 °F75%29.99 "Hg
* Reported Apr 11 1:53 am — Apr 26 1:53 am, Chula Vista, Weather by CustomWeather, © 2017

Note: Actual official high and low records may vary slightly from our data, if they occured in-between our weather recording intervals... More about our weather records

Advertising

Chula Vista Weather History for the Previous 24 Hours

Scroll right to see more
 ConditionsComfort  
Time TempWeatherWind HumidityBarometerVisibility
1:53 am
Wed, Apr 26
56 °FClear.No wind87%29.89 "Hg10 mi
12:53 am56 °FClear.No wind87%29.90 "Hg10 mi
11:53 pm
Tue, Apr 25
57 °FClear.No wind90%29.91 "Hg10 mi
10:53 pm57 °FClear.No wind90%29.92 "Hg9 mi
9:53 pm56 °FClear.No wind90%29.93 "Hg10 mi
8:53 pm58 °FClear.5 mph87%29.92 "Hg10 mi
7:53 pm60 °FClear.5 mph78%29.90 "Hg10 mi
6:53 pm62 °FSunny.7 mph65%29.89 "Hg10 mi
5:53 pm65 °FSunny.8 mph61%29.88 "Hg10 mi
4:53 pm65 °FScattered clouds.13 mph63%29.89 "Hg10 mi
3:53 pm67 °FScattered clouds.14 mph63%29.89 "Hg10 mi
2:53 pm66 °FPartly sunny.10 mph68%29.90 "Hg10 mi
1:53 pm66 °FPartly sunny.8 mph65%29.92 "Hg9 mi
1:07 pm67 °FPartly sunny.12 mph66%29.93 "Hg10 mi
12:53 pm68 °FScattered clouds.12 mph63%29.92 "Hg10 mi
11:53 am69 °FBroken clouds.12 mph61%29.92 "Hg10 mi
10:53 am68 °FBroken clouds.9 mph59%29.92 "Hg10 mi
9:53 am64 °FPartly sunny.6 mph70%29.93 "Hg10 mi
9:11 am63 °FPartly sunny.5 mph70%29.93 "Hg10 mi
8:53 am63 °FPartly sunny.7 mph70%29.92 "Hg10 mi
7:53 am61 °FScattered clouds.12 mph78%29.90 "Hg10 mi
6:53 am59 °FMostly cloudy.7 mph84%29.88 "Hg9 mi
5:53 am57 °FPassing clouds.8 mph87%29.87 "Hg10 mi
4:53 am58 °FMostly cloudy.9 mph87%29.87 "Hg10 mi
4:16 am58 °FOvercast.6 mph90%29.88 "Hg10 mi
4:04 am58 °FMostly cloudy.7 mph87%29.87 "Hg9 mi
3:53 am58 °FOvercast.8 mph87%29.87 "Hg10 mi
Weather by CustomWeather, © 2017

See weather overviewHow to use our weather pages